Date String (YYYY-MM-DD hh:mm:ss) UTC,Instrument flags,Ambient pressure (hPa),Sample flow (lpm),Bypass flow (lpm),Sample temperature (°C),Ambient temperature (°C),ASC tube jacket temperature (°C),LED temperature (°C),Box temperature (°C),Sample RH (%),Span deviation,Mass concentration (μg/m³),Mass concentration (μg/m³),Mass concentration (μg/m³)
DateTimeUTC,F1_M11,P_M11,Q1_M11,Q2_M11,T1_M11,T2_M11,T3_M11,T4_M11,T5_M11,U1_M11,ZSPAN_M11,X2_M11,X0_M11,X1_M11
2023-01-15 23:00:00,,0807.4,5.00,0.00,23.6,22.3,00.0,32.3,25.4,13.7,0000.0,0004.16,0006.04,0003.95
2023-01-15 23:01:00,,0807.4,5.00,0.00,23.6,22.3,00.0,32.4,25.4,13.7,0000.0,0004.14,0005.86,0003.93
2023-01-15 23:02:00,,0807.4,5.00,0.00,23.6,22.3,00.0,32.4,25.4,13.7,0000.0,0004.14,0005.92,0003.91
2023-01-15 23:03:00,,0807.4,5.00,0.00,23.6,22.3,00.0,32.4,25.5,13.8,0000.0,0004.11,0005.82,0003.89
2023-01-15 23:04:00,,0807.4,5.01,0.00,23.6,22.3,00.0,32.4,25.4,13.7,0000.0,0004.08,0005.69,0003.87
2023-01-15 23:05:00,,0807.5,5.01,0.00,23.6,22.3,00.0,32.4,25.5,13.8,0000.0,0004.09,0005.72,0003.87
2023-01-15 23:06:00,,0807.5,5.02,0.00,23.6,22.4,00.0,32.4,25.5,13.9,0000.0,0004.08,0005.75,0003.87
2023-01-15 23:07:00,,0807.5,4.98,0.00,23.6,22.4,00.0,32.4,25.5,13.9,0000.0,0004.06,0006.19,0003.85
2023-01-15 23:08:00,,0807.5,4.99,0.00,23.6,22.3,00.0,32.4,25.4,13.8,0000.0,0004.03,0006.26,0003.83
2023-01-15 23:09:00,,0807.5,5.00,0.00,23.6,22.4,00.0,32.4,25.4,13.9,0000.0,0004.01,0006.16,0003.81
2023-01-15 23:10:00,,0807.5,5.00,0.00,23.6,22.4,00.0,32.4,25.5,13.9,0000.0,0003.99,0006.05,0003.80
2023-01-15 23:11:00,,0807.5,5.01,0.00,23.6,22.4,00.0,32.4,25.5,13.9,0000.0,0003.95,0005.83,0003.78
2023-01-15 23:12:00,,0807.5,5.00,0.00,23.6,22.4,00.0,32.4,25.5,14.0,0000.0,0003.92,0005.65,0003.77
2023-01-15 23:13:00,,0807.5,4.99,0.00,23.6,22.4,00.0,32.4,25.4,14.1,0000.0,0003.90,0005.53,0003.77
2023-01-15 23:14:00,,0807.5,5.00,0.00,23.6,22.4,00.0,32.4,25.4,14.1,0000.0,0003.90,0005.59,0003.76
2023-01-15 23:15:00,,0807.5,5.00,0.00,23.6,22.4,00.0,32.4,25.5,14.2,0000.0,0003.91,0005.69,0003.75
2023-01-15 23:16:00,,0807.5,5.01,0.00,23.6,22.4,00.0,32.4,25.5,14.2,0000.0,0003.89,0005.64,0003.73
2023-01-15 23:17:00,,0807.5,4.99,0.00,23.6,22.4,00.0,32.4,25.5,14.2,0000.0,0003.89,0005.58,0003.73
2023-01-15 23:18:00,,0807.5,4.99,0.00,23.6,22.4,00.0,32.4,25.5,14.1,0000.0,0003.91,0005.15,0003.73
2023-01-15 23:19:00,,0807.5,5.01,0.00,23.6,22.4,00.0,32.4,25.5,14.2,0000.0,0003.91,0005.09,0003.73
2023-01-15 23:20:00,,0807.5,5.00,0.00,23.6,22.4,00.0,32.4,25.5,14.1,0000.0,0003.91,0005.97,0003.72
2023-01-15 23:21:00,,0807.5,5.00,0.00,23.6,22.4,00.0,32.4,25.5,14.0,0000.0,0003.91,0005.96,0003.73
2023-01-15 23:22:00,,0807.5,5.01,0.00,23.6,22.4,00.0,32.4,25.5,14.0,0000.0,0003.92,0006.02,0003.74
2023-01-15 23:23:00,,0807.5,5.00,0.00,23.6,22.4,00.0,32.4,25.5,14.1,0000.0,0003.92,0006.16,0003.73
2023-01-15 23:24:00,,0807.5,5.01,0.00,23.6,22.4,00.0,32.4,25.5,14.1,0000.0,0003.92,0007.27,0003.73
2023-01-15 23:25:00,,0807.6,5.01,0.00,23.6,22.4,00.0,32.4,25.5,14.0,0000.0,0003.93,0007.36,0003.73
2023-01-15 23:26:00,,0807.6,5.01,0.00,23.6,22.4,00.0,32.4,25.5,14.0,0000.0,0003.92,0007.36,0003.73
2023-01-15 23:27:00,,0807.6,5.00,0.00,23.6,22.4,00.0,32.4,25.5,14.0,0000.0,0003.92,0007.40,0003.73
2023-01-15 23:28:00,,0807.6,5.00,0.00,23.6,22.4,00.0,32.4,25.5,13.9,0000.0,0003.91,0007.38,0003.72
2023-01-15 23:29:00,,0807.7,5.00,0.00,23.6,22.4,00.0,32.5,25.5,13.9,0000.0,0003.88,0007.34,0003.70
2023-01-15 23:30:00,,0807.7,4.99,0.00,23.6,22.4,00.0,32.5,25.5,14.0,0000.0,0003.87,0007.33,0003.68
2023-01-15 23:31:00,,0807.7,5.00,0.00,23.7,22.4,00.0,32.5,25.5,14.0,0000.0,0003.85,0006.45,0003.67
2023-01-15 23:32:00,,0807.7,5.01,0.00,23.7,22.4,00.0,32.5,25.5,14.0,0000.0,0003.85,0006.42,0003.66
2023-01-15 23:33:00,,0807.6,5.01,0.00,23.7,22.4,00.0,32.5,25.5,14.0,0000.0,0003.86,0006.56,0003.64
2023-01-15 23:34:00,,0807.7,5.01,0.00,23.7,22.4,00.0,32.5,25.5,14.0,0000.0,0003.85,0006.59,0003.63
2023-01-15 23:35:00,,0807.7,5.00,0.00,23.7,22.4,00.0,32.5,25.5,14.0,0000.0,0003.85,0005.59,0003.61
2023-01-15 23:36:00,,0807.6,5.01,0.00,23.7,22.4,00.0,32.5,25.5,14.0,0000.0,0003.85,0005.38,0003.60
2023-01-15 23:37:00,,0807.6,5.01,0.00,23.7,22.4,00.0,32.5,25.5,14.0,0000.0,0003.85,0005.35,0003.60
2023-01-15 23:38:00,,0807.7,5.00,0.00,23.7,22.4,00.0,32.5,25.5,13.9,0000.0,0003.85,0005.37,0003.58
2023-01-15 23:39:00,,0807.7,4.99,0.00,23.7,22.4,00.0,32.5,25.5,13.9,0000.0,0003.84,0005.39,0003.57
2023-01-15 23:40:00,,0807.6,5.00,0.00,23.7,22.4,00.0,32.5,25.5,13.9,0000.0,0003.82,0005.34,0003.56
2023-01-15 23:41:00,,0807.6,5.01,0.00,23.7,22.4,00.0,32.5,25.5,13.9,0000.0,0003.82,0005.38,0003.56
2023-01-15 23:42:00,,0807.6,5.00,0.00,23.7,22.4,00.0,32.5,25.5,13.9,0000.0,0003.83,0005.42,0003.56
2023-01-15 23:43:00,,0807.7,5.00,0.00,23.7,22.4,00.0,32.5,25.5,14.0,0000.0,0003.82,0005.45,0003.54
2023-01-15 23:44:00,,0807.7,5.00,0.00,23.7,22.4,00.0,32.5,25.5,14.0,0000.0,0003.81,0005.37,0003.52
2023-01-15 23:45:00,,0807.6,5.00,0.00,23.7,22.4,00.0,32.5,25.5,14.0,0000.0,0003.78,0005.30,0003.50
2023-01-15 23:46:00,,0807.7,5.00,0.00,23.7,22.4,00.0,32.5,25.5,14.0,0000.0,0003.76,0005.33,0003.47
2023-01-15 23:47:00,,0807.7,5.01,0.00,23.7,22.4,00.0,32.5,25.5,14.0,0000.0,0003.72,0005.26,0003.45
2023-01-15 23:48:00,,0807.7,5.00,0.00,23.7,22.4,00.0,32.5,25.5,14.0,0000.0,0003.68,0005.16,0003.42
2023-01-15 23:49:00,,0807.7,5.01,0.00,23.7,22.4,00.0,32.5,25.5,14.1,0000.0,0003.64,0004.97,0003.40
2023-01-15 23:50:00,,0807.7,5.00,0.00,23.7,22.5,00.0,32.5,25.5,14.1,0000.0,0003.60,0004.85,0003.37
2023-01-15 23:51:00,,0808.0,4.99,0.00,23.7,22.4,00.0,32.5,25.5,14.1,0000.0,0003.57,0004.77,0003.34
2023-01-15 23:52:00,,0807.8,5.01,0.00,23.7,22.5,00.0,32.5,25.5,14.1,0000.0,0003.55,0004.79,0003.32
2023-01-15 23:53:00,,0807.8,5.00,0.00,23.7,22.5,00.0,32.5,25.6,14.1,0000.0,0003.51,0005.34,0003.29
2023-01-15 23:54:00,,0807.8,5.01,0.00,23.7,22.5,00.0,32.5,25.5,14.1,0000.0,0003.48,0005.34,0003.26
2023-01-15 23:55:00,,0807.8,5.00,0.00,23.7,22.5,00.0,32.5,25.5,14.2,0000.0,0003.44,0005.28,0003.23
2023-01-15 23:56:00,,0807.8,4.99,0.00,23.7,22.5,00.0,32.5,25.5,14.2,0000.0,0003.39,0005.14,0003.21
2023-01-15 23:57:00,,0807.8,5.01,0.00,23.7,22.5,00.0,32.5,25.5,14.2,0000.0,0003.36,0005.03,0003.19
2023-01-15 23:58:00,,0807.7,4.99,0.00,23.8,22.5,00.0,32.5,25.5,14.2,0000.0,0003.33,0004.94,0003.17
2023-01-15 23:59:00,,0807.8,5.01,0.00,23.8,22.5,00.0,32.5,25.5,14.2,0000.0,0003.33,0005.20,0003.15
